This is the latest recevied weather packets stored in our database for station/object G4KVI. If no packets are shown the sender has not sent any weather packets the latest 10 day(s).
| Time | Temp. | Humidity | Pressure | Rain* | Wind** | Luminosity | Snow |
|---|---|---|---|---|---|---|---|
| 1788354304 | 18.33° C | 88% | 1019.4 hPa | 0 mm | - | 161 W/m² | - |
| 1788354004 | 18.33° C | 88% | 1019.3 hPa | 0 mm | - | 134 W/m² | - |
| 1788353704 | 18.33° C | 88% | 1019.2 hPa | 0 mm | - | 103 W/m² | - |
| 1788353404 | 18.33° C | 88% | 1019.3 hPa | 0 mm | - | 162 W/m² | - |
| 1788353104 | 18.33° C | 88% | 1019.5 hPa | 0 mm | - | 189 W/m² | - |
| 1788352804 | 18.33° C | 88% | 1019.4 hPa | 0.25 mm | - | 129 W/m² | - |
| 1788352504 | 18.33° C | 89% | 1019.6 hPa | 0.25 mm | - | 196 W/m² | - |
| 1788352204 | 17.78° C | 90% | 1019.4 hPa | 0.25 mm | - | 196 W/m² | - |
| 1788351904 | 17.78° C | 90% | 1019.6 hPa | 0.51 mm | - | 219 W/m² | - |
| 1788351604 | 17.78° C | 90% | 1019.7 hPa | 1.02 mm | - | 155 W/m² | - |
| 1788351304 | 17.78° C | 90% | 1019.7 hPa | 1.02 mm | - | 130 W/m² | - |
| 1788351004 | 17.78° C | 90% | 1019.4 hPa | 1.02 mm | - | 154 W/m² | - |
| 1788350704 | 17.78° C | 90% | 1019.6 hPa | 1.02 mm | - | 132 W/m² | - |
| 1788350404 | 17.78° C | 90% | 1019.7 hPa | 1.02 mm | - | 104 W/m² | - |
| 1788350104 | 17.22° C | 90% | 1019.6 hPa | 1.02 mm | - | 162 W/m² | - |
| 1788349804 | 17.78° C | 89% | 1020 hPa | 1.02 mm | - | 95 W/m² | - |
| 1788349504 | 17.78° C | 89% | 1019.9 hPa | 1.02 mm | - | 70 W/m² | - |
| 1788349204 | 17.78° C | 89% | 1019.8 hPa | 0.76 mm | - | 67 W/m² | - |
| 1788348904 | 17.78° C | 89% | 1020 hPa | 0.76 mm | - | 111 W/m² | - |
| 1788348604 | 17.78° C | 88% | 1020.2 hPa | 0.76 mm | - | 111 W/m² | - |
| 1788348304 | 17.78° C | 87% | 1019.9 hPa | 0.51 mm | - | 166 W/m² | - |
| 1788348004 | 17.78° C | 87% | 1020.3 hPa | 0 mm | - | 155 W/m² | - |
| 1788347704 | 17.78° C | 86% | 1020.1 hPa | 0 mm | - | 101 W/m² | - |
| 1788347404 | 17.78° C | 87% | 1020 hPa | 0 mm | - | 187 W/m² | - |
| 1788347104 | 17.78° C | 87% | 1020.2 hPa | 0 mm | - | 120 W/m² | - |
* Rain latest hour (hover to see other rain measurements)
** Current wind speed in m/s (hover to see current wind gust speed)